TimeMDT,TemperatureF,Dew PointF,Humidity,Sea Level PressureIn,VisibilityMPH,Wind Direction,Wind SpeedMPH,Gust SpeedMPH,PrecipitationIn,Events,Conditions,WindDirDegrees,DateUTC
12:15 AM,46.4,32.0,57,29.58,10.0,SSW,9.2,-,N/A,,Scattered Clouds,210,2012-10-20 06:15:00
12:35 AM,44.6,32.0,61,29.57,10.0,WSW,8.1,-,N/A,,Partly Cloudy,250,2012-10-20 06:35:00
12:55 AM,44.6,33.8,66,29.57,10.0,Calm,Calm,-,N/A,,Clear,0,2012-10-20 06:55:00
1:15 AM,42.8,30.2,61,29.58,10.0,WSW,4.6,-,N/A,,Scattered Clouds,240,2012-10-20 07:15:00
1:35 AM,44.6,32.0,61,29.57,10.0,Calm,Calm,-,N/A,,Scattered Clouds,0,2012-10-20 07:35:00
1:55 AM,44.6,32.0,61,29.57,10.0,Calm,Calm,-,N/A,,Scattered Clouds,0,2012-10-20 07:55:00
2:15 AM,44.6,32.0,61,29.57,10.0,Calm,Calm,-,N/A,,Partly Cloudy,0,2012-10-20 08:15:00
2:35 AM,44.6,33.8,66,29.57,10.0,Calm,Calm,-,N/A,,Clear,0,2012-10-20 08:35:00
2:55 AM,46.4,32.0,57,29.56,10.0,SSE,3.5,-,N/A,,Clear,150,2012-10-20 08:55:00
3:15 AM,42.8,30.2,61,29.55,10.0,South,4.6,-,N/A,,Clear,170,2012-10-20 09:15:00
3:35 AM,42.8,32.0,66,29.55,10.0,SSW,5.8,-,N/A,,Clear,200,2012-10-20 09:35:00
3:55 AM,42.8,32.0,66,29.54,10.0,South,4.6,-,N/A,,Clear,180,2012-10-20 09:55:00
4:15 AM,41.0,32.0,70,29.55,10.0,Calm,Calm,-,N/A,,Clear,0,2012-10-20 10:15:00
4:35 AM,42.8,33.8,70,29.53,10.0,SSE,8.1,-,N/A,,Mostly Cloudy,160,2012-10-20 10:35:00
4:55 AM,42.8,33.8,70,29.54,10.0,Calm,Calm,-,N/A,,Mostly Cloudy,0,2012-10-20 10:55:00
5:15 AM,41.0,33.8,76,29.54,10.0,South,3.5,-,N/A,,Partly Cloudy,180,2012-10-20 11:15:00
5:35 AM,44.6,33.8,66,29.55,10.0,SSW,11.5,-,N/A,,Mostly Cloudy,200,2012-10-20 11:35:00
6:15 AM,44.6,32.0,61,29.54,10.0,SSW,10.4,-,N/A,,Scattered Clouds,200,2012-10-20 12:15:00
6:35 AM,44.6,32.0,61,29.53,10.0,South,11.5,-,N/A,,Scattered Clouds,190,2012-10-20 12:35:00
6:55 AM,44.6,32.0,61,29.52,10.0,South,10.4,-,N/A,,Overcast,170,2012-10-20 12:55:00
7:15 AM,44.6,30.2,57,29.51,10.0,South,12.7,-,N/A,,Mostly Cloudy,190,2012-10-20 13:15:00
7:35 AM,46.4,30.2,53,29.53,10.0,South,8.1,-,N/A,,Scattered Clouds,190,2012-10-20 13:35:00
7:55 AM,46.4,33.8,62,29.52,10.0,South,12.7,-,N/A,,Overcast,180,2012-10-20 13:55:00
8:15 AM,46.4,32.0,57,29.52,10.0,South,11.5,-,N/A,,Scattered Clouds,190,2012-10-20 14:15:00
8:35 AM,48.2,33.8,58,29.52,10.0,SSW,8.1,-,N/A,,Clear,210,2012-10-20 14:35:00
8:55 AM,51.8,33.8,50,29.53,10.0,SW,8.1,-,N/A,,Clear,220,2012-10-20 14:55:00
9:15 AM,53.6,33.8,47,29.53,10.0,SSW,11.5,-,N/A,,Clear,200,2012-10-20 15:15:00
9:35 AM,53.6,35.6,51,29.54,10.0,SSW,8.1,-,N/A,,Partly Cloudy,200,2012-10-20 15:35:00
9:55 AM,57.2,35.6,44,29.56,10.0,WSW,12.7,16.1,N/A,,Scattered Clouds,240,2012-10-20 15:55:00
10:15 AM,55.4,37.4,51,29.55,10.0,West,12.7,-,N/A,,Mostly Cloudy,270,2012-10-20 16:15:00
10:35 AM,57.2,37.4,48,29.55,10.0,West,12.7,-,N/A,,Mostly Cloudy,270,2012-10-20 16:35:00
11:15 AM,62.6,42.8,48,29.54,10.0,West,13.8,-,N/A,,Partly Cloudy,260,2012-10-20 17:15:00
11:35 AM,64.4,41.0,42,29.53,10.0,WSW,9.2,-,N/A,,Mostly Cloudy,250,2012-10-20 17:35:00
11:55 AM,66.2,37.4,35,29.53,10.0,WSW,12.7,-,N/A,,Overcast,250,2012-10-20 17:55:00
12:15 PM,66.2,35.6,32,29.53,10.0,West,15.0,-,N/A,,Mostly Cloudy,270,2012-10-20 18:15:00
12:35 PM,69.8,37.4,31,29.52,10.0,West,19.6,23.0,N/A,,Scattered Clouds,270,2012-10-20 18:35:00
12:55 PM,68.0,37.4,33,29.52,10.0,WNW,16.1,20.7,N/A,,Partly Cloudy,290,2012-10-20 18:55:00
1:15 PM,66.2,37.4,35,29.52,10.0,WNW,13.8,-,N/A,,Partly Cloudy,300,2012-10-20 19:15:00
1:35 PM,68.0,37.4,33,29.52,10.0,WNW,13.8,19.6,N/A,,Clear,300,2012-10-20 19:35:00
1:55 PM,69.8,37.4,31,29.51,10.0,West,10.4,19.6,N/A,,Clear,280,2012-10-20 19:55:00
2:15 PM,66.2,35.6,32,29.52,10.0,WNW,13.8,-,N/A,,Clear,290,2012-10-20 20:15:00
2:35 PM,66.2,37.4,35,29.52,10.0,WNW,11.5,18.4,N/A,,Clear,290,2012-10-20 20:35:00
2:55 PM,68.0,37.4,33,29.52,10.0,WNW,13.8,19.6,N/A,,Partly Cloudy,290,2012-10-20 20:55:00
3:15 PM,68.0,37.4,33,29.52,10.0,WNW,11.5,16.1,N/A,,Partly Cloudy,290,2012-10-20 21:15:00
3:35 PM,66.2,37.4,35,29.52,10.0,WNW,10.4,-,N/A,,Clear,290,2012-10-20 21:35:00
3:55 PM,64.4,37.4,37,29.53,10.0,WNW,8.1,-,N/A,,Partly Cloudy,300,2012-10-20 21:55:00
4:35 PM,64.4,37.4,37,29.53,10.0,NNW,15.0,-,N/A,,Mostly Cloudy,330,2012-10-20 22:35:00
4:55 PM,62.6,37.4,39,29.53,10.0,North,9.2,-,N/A,,Scattered Clouds,360,2012-10-20 22:55:00
5:15 PM,60.8,37.4,42,29.55,10.0,North,6.9,-,N/A,,Clear,360,2012-10-20 23:15:00
5:35 PM,57.2,37.4,48,29.56,10.0,NNW,9.2,-,N/A,,Clear,330,2012-10-20 23:35:00
5:55 PM,57.2,37.4,48,29.56,10.0,NNW,9.2,-,N/A,,Scattered Clouds,330,2012-10-20 23:55:00
6:15 PM,55.4,37.4,51,29.56,10.0,North,6.9,-,N/A,,Scattered Clouds,350,2012-10-21 00:15:00
6:35 PM,55.4,37.4,51,29.57,10.0,NNW,6.9,-,N/A,,Mostly Cloudy,330,2012-10-21 00:35:00
6:55 PM,55.4,37.4,51,29.57,10.0,NW,8.1,-,N/A,,Mostly Cloudy,320,2012-10-21 00:55:00
7:15 PM,57.2,33.8,41,29.58,10.0,NW,13.8,-,N/A,,Mostly Cloudy,320,2012-10-21 01:15:00
7:35 PM,55.4,33.8,44,29.60,10.0,NW,13.8,-,N/A,,Overcast,320,2012-10-21 01:35:00
7:55 PM,55.4,33.8,44,29.60,10.0,NNW,11.5,-,N/A,,Overcast,330,2012-10-21 01:55:00
8:15 PM,55.4,32.0,41,29.62,10.0,NW,13.8,-,N/A,,Mostly Cloudy,320,2012-10-21 02:15:00
8:35 PM,55.4,32.0,41,29.63,10.0,NW,13.8,-,N/A,,Partly Cloudy,320,2012-10-21 02:35:00
8:55 PM,53.6,33.8,47,29.65,10.0,NW,8.1,-,N/A,,Mostly Cloudy,320,2012-10-21 02:55:00
9:15 PM,53.6,33.8,47,29.67,10.0,NW,13.8,-,N/A,,Overcast,320,2012-10-21 03:15:00
9:35 PM,55.4,33.8,44,29.68,10.0,WNW,19.6,24.2,N/A,,Overcast,290,2012-10-21 03:35:00
9:55 PM,55.4,33.8,44,29.69,10.0,WNW,9.2,-,N/A,,Mostly Cloudy,290,2012-10-21 03:55:00
10:15 PM,53.6,35.6,51,29.70,10.0,WNW,11.5,24.2,N/A,,Mostly Cloudy,300,2012-10-21 04:15:00
10:35 PM,51.8,37.4,58,29.70,10.0,North,10.4,16.1,N/A,,Mostly Cloudy,350,2012-10-21 04:35:00
10:55 PM,51.8,35.6,54,29.72,10.0,NW,10.4,16.1,N/A,,Mostly Cloudy,310,2012-10-21 04:55:00
11:15 PM,51.8,33.8,50,29.73,10.0,NW,10.4,16.1,N/A,,Mostly Cloudy,320,2012-10-21 05:15:00
11:35 PM,51.8,30.2,44,29.75,10.0,WNW,11.5,-,N/A,,Mostly Cloudy,300,2012-10-21 05:35:00
11:55 PM,50.0,33.8,54,29.76,10.0,NNW,15.0,19.6,N/A,,Overcast,330,2012-10-21 05:55:00